Temp
21 19 20 22 23 24 24 23 23 24 25 24 24 24 25 25 25 25 26 26 25 25 21 19 18 17 16 15 14 14 14 14 14 15 16 18 21 21 22 22 22 22 21 20
21 20 22 23 23 23 23 22 22 23 24 24 24 23 24 24 25 25 25 25 21 20 19 18 17 15 14 14 13 13 13 13 12 13 14 14 15 16 17 21 22 22 21 21
20 22 24 23 22 21 22 21 21 21 22 23 22 21 22 24 25 26 23 21 19 17 16 16 15 14 12 12 11 11 11 11 11 11 11 13 14 16 18 19 20 21 21 21
21 22 22 22 22 22 20 22 22 21 20 19 21 19 21 22 23 24 19 17 16 16 15 14 13 12 10 10 9 9 9 8 9 9 10 11 12 13 15 16 18 21 22 22
20 21 21 21 20 21 20 21 20 20 18 18 19 18 20 22 21 16 16 15 14 14 13 12 11 9 8 7 6 6 6 6 6 7 8 9 10 10 12 14 16 17 20 22
20 23 21 21 21 21 21 19 19 19 18 16 18 19 19 19 17 15 14 14 13 11 11 10 8 7 6 5 4 3 3 4 4 4 5 6 7 8 8 10 12 14 17 19
20 20 21 21 19 19 19 17 15 15 17 17 20 20 16 15 14 13 12 11 10 9 8 7 6 4 3 3 2 2 2 1 2 2 3 4 4 5 6 7 9 12 14 17
17 18 20 21 19 18 18 18 16 14 15 16 18 17 15 16 14 12 11 10 9 7 6 5 4 3 2 1 1 0 -0 -0 -0 0 1 2 2 3 4 6 7 10 13 15
17 18 20 19 18 18 16 16 18 16 16 14 16 18 15 12 11 10 10 9 7 6 5 4 3 1 0 -0 -1 -1 -1 -2 -2 -1 -0 0 1 2 3 4 6 8 10 13
17 14 17 18 19 17 16 17 14 15 12 12 16 16 10 7 7 8 8 7 6 5 3 3 1 0 -0 -1 -1 -2 -2 -2 -2 -2 -1 -0 1 2 3 4 5 7 8 12
17 16 15 17 16 16 16 15 14 14 14 12 13 13 7 6 5 6 6 7 5 4 3 1 0 -1 -1 -1 -2 -2 -2 -3 -3 -2 -1 0 2 3 4 5 7 7 8 10
16 14 12 14 17 17 17 16 15 12 12 14 14 12 7 6 6 6 6 5 5 3 2 0 -1 -1 -1 -1 -1 -2 -2 -3 -3 -2 -1 0 1 1 2 3 5 8 10 12
15 13 11 13 15 16 15 15 15 15 13 12 11 10 7 7 6 5 4 4 3 2 0 -0 -1 -1 -2 -2 -1 -2 -2 -3 -3 -2 -2 -1 -0 -0 0 0 1 2 4 5
12 12 11 11 12 12 11 10 14 14 12 13 12 8 6 6 5 4 3 3 2 0 -1 -1 -1 -2 -2 -2 -1 -2 -2 -3 -3 -2 -2 -2 -2 -1 -1 -0 -1 -0 0 1
12 10 10 11 12 13 13 13 13 12 13 11 11 9 6 4 3 2 2 1 0 -0 -1 -2 -2 -2 -2 -2 -2 -2 -2 -3 -3 -3 -2 -2 -2 -2 -2 -2 -2 -2 -1 -0
12 9 10 8 11 12 11 12 13 12 11 10 8 9 5 4 2 2 1 -0 -1 -1 -2 -2 -2 -2 -2 -2 -2 -2 -3 -3 -3 -3 -3 -3 -3 -2 -2 -3 -3 -3 -3 -2
10 9 9 9 13 12 11 11 11 11 11 11 9 7 4 3 1 0 -0 -1 -2 -2 -2 -2 -2 -3 -3 -2 -3 -2 -2 -3 -4 -3 -3 -3 -3 -3 -3 -3 -3 -3 -3 -3
9 8 9 10 11 10 8 9 10 10 9 7 6 5 4 3 0 -0 -1 -1 -2 -2 -3 -4 -4 -4 -4 -3 -4 -4 -3 -4 -4 -4 -4 -4 -4 -3 -3 -3 -3 -3 -3 -4
9 9 9 10 12 10 8 8 9 7 7 8 7 5 4 2 1 -1 -0 -2 -3 -4 -4 -5 -5 -5 -6 -5 -5 -5 -5 -5 -5 -5 -5 -4 -5 -4 -4 -4 -3 -3 -3 -4
10 10 8 11 10 11 10 10 11 10 8 8 7 6 4 3 3 0 -1 -2 -3 -5 -5 -6 -6 -6 -6 -6 -6 -6 -6 -6 -5 -5 -5 -6 -5 -6 -6 -5 -5 -4 -4 -4
8 8 9 10 9 10 11 10 11 8 8 8 8 7 6 4 2 -1 -1 -2 -3 -5 -5 -6 -6 -6 -6 -6 -6 -6 -6 -6 -5 -5 -5 -6 -6 -6 -7 -7 -6 -6 -5 -5
10 10 10 10 10 10 10 9 8 6 8 7 5 3 -0 -1 -2 -3 -3 -3 -3 -3 -4 -5 -6 -6 -6 -6 -6 -6 -6 -5 -5 -5 -5 -5 -6 -7 -7 -8 -8 -7 -7 -6
11 11 9 6 7 6 6 6 7 7 6 4 3 1 -1 -2 -2 -2 -2 -2 -3 -4 -3 -4 -5 -5 -5 -5 -5 -5 -5 -4 -5 -4 -4 -5 -5 -6 -7 -8 -8 -9 -8 -8
10 9 10 8 5 5 5 6 6 6 4 3 2 1 0 -1 -2 -2 -1 -1 -2 -2 -3 -3 -3 -4 -5 -4 -5 -5 -5 -4 -4 -4 -4 -4 -4 -6 -7 -7 -9 -9 -9 -9
10 9 9 5 5 4 4 4 4 3 3 2 2 1 -0 -1 -1 -2 -2 -2 -2 -2 -2 -2 -3 -3 -4 -5 -5 -5 -5 -4 -4 -4 -5 -4 -4 -5 -6 -8 -8 -9 -9 -9
9 7 7 8 6 6 4 2 2 2 1 1 1 1 0 -1 -1 -1 -0 0 0 -0 -1 -1 -2 -3 -4 -5 -6 -5 -6 -6 -5 -5 -4 -5 -5 -5 -5 -5 -6 -7 -8 -8
Height
766 775 773 760 752 747 746 747 747 741 734 740 735 732 727 725 728 725 721 721 722 725 741 748 752 756 759 761 761 761 760 757 753 748 744 740 735 734 730 731 731 731 732 735
767 766 755 749 747 750 749 752 753 745 740 739 734 733 724 725 723 719 717 717 732 740 747 752 755 758 762 765 766 765 762 759 756 752 746 740 736 729 728 726 723 727 727 728
761 748 737 743 750 758 753 755 754 753 742 737 740 740 730 717 708 705 714 727 739 750 756 758 761 764 768 770 768 765 763 759 756 753 747 741 733 728 723 721 719 717 719 721
753 746 747 746 747 750 756 750 749 750 755 760 740 748 738 724 718 713 730 743 753 755 760 764 768 772 773 772 769 767 763 759 755 752 748 742 736 729 723 718 716 712 709 712
755 749 748 748 752 750 751 746 752 754 760 760 744 752 734 720 721 744 751 757 761 764 769 775 777 776 776 774 771 768 764 760 754 750 746 741 734 729 722 716 713 709 705 702
747 737 742 746 746 748 749 757 758 756 758 766 745 744 729 731 744 754 760 764 772 779 781 782 782 780 779 776 773 768 763 758 754 747 742 738 733 727 721 715 709 707 704 699
747 742 737 740 755 754 756 767 774 769 759 752 727 729 750 751 760 766 771 775 782 785 786 786 784 782 779 776 771 766 761 754 751 745 737 734 729 724 718 714 707 703 698 696
757 754 738 736 748 759 759 759 768 770 764 753 739 743 750 753 765 774 778 782 787 787 787 787 786 783 781 777 771 764 758 750 747 741 732 728 723 718 712 708 704 698 694 690
757 748 739 746 749 756 764 765 754 759 754 762 750 737 747 765 776 781 781 783 784 786 789 791 790 788 783 777 769 762 754 748 742 733 726 721 715 710 704 700 697 692 685 683
755 765 751 748 745 754 762 760 772 765 774 769 738 734 772 791 792 791 790 792 794 795 797 797 795 791 785 778 770 761 754 746 737 728 721 713 707 700 695 690 685 681 676 674
755 760 757 751 752 755 758 760 766 767 767 767 760 756 796 804 804 801 799 797 797 798 799 799 798 793 786 778 769 761 754 744 733 723 715 707 700 693 686 680 672 666 666 666
757 762 767 758 744 745 749 752 754 768 771 755 754 762 797 805 803 803 803 801 799 801 803 803 799 793 786 778 771 762 752 743 732 722 714 705 697 690 683 676 668 653 658 662
761 768 772 758 750 748 750 752 751 751 766 764 766 769 798 800 803 805 809 804 804 806 808 805 800 795 789 781 770 764 756 746 736 726 716 707 702 691 683 679 668 659 654 654
771 771 775 770 765 765 772 772 752 750 757 754 755 787 797 801 805 810 810 810 811 813 811 808 804 799 791 782 772 766 758 749 739 730 719 710 703 697 693 686 673 669 663 657
771 778 777 772 766 761 758 756 752 757 752 760 764 778 798 806 811 814 815 816 816 815 813 812 808 802 794 785 777 770 763 755 746 736 726 719 717 711 703 687 682 679 669 660
769 780 777 780 763 758 758 754 751 753 758 767 776 777 801 809 815 816 819 821 820 820 818 816 811 805 797 791 785 778 771 763 756 747 740 734 724 715 707 694 691 686 685 692
772 778 782 769 746 747 753 749 748 751 756 760 767 779 802 810 817 822 823 824 824 822 821 820 815 810 804 798 793 786 780 772 762 754 747 740 732 724 714 712 710 705 709 706
772 779 777 763 751 755 760 758 754 759 768 776 784 793 799 810 821 824 826 826 826 826 826 824 821 816 811 806 801 794 787 780 773 766 760 752 745 737 730 726 723 711 727 716
767 772 771 762 741 751 762 763 762 771 775 771 781 793 802 812 818 825 826 829 830 831 830 828 824 821 816 811 806 800 793 787 782 776 771 765 757 750 744 739 733 728 735 727
761 767 773 753 752 741 750 753 755 761 767 771 778 788 798 806 805 821 828 831 832 833 832 830 827 824 818 816 811 804 798 793 787 784 780 775 769 762 758 754 750 751 750 746
764 769 764 757 759 751 749 756 757 765 768 768 773 782 791 798 811 823 828 832 833 834 833 832 830 826 824 820 815 810 806 801 799 794 789 782 777 775 773 770 766 762 758 756
743 752 747 748 749 740 757 761 763 770 767 772 782 790 803 812 820 827 830 832 833 833 834 833 831 829 826 824 819 816 811 810 806 801 796 792 788 785 781 777 773 770 768 766
737 739 747 764 760 770 770 770 768 770 774 783 790 800 805 815 822 826 829 832 834 834 835 834 833 831 828 827 824 822 818 814 811 807 803 799 795 792 790 786 783 780 777 775
741 745 743 758 771 773 774 772 774 777 783 788 795 802 808 814 821 825 828 831 833 835 835 835 834 833 832 830 827 825 821 817 815 812 808 806 802 800 797 794 792 790 788 787
740 746 748 767 772 775 777 779 782 786 790 795 800 805 810 815 821 825 829 832 833 835 835 835 835 835 835 834 832 829 825 822 818 816 814 811 810 808 805 802 800 799 799 798
739 746 750 745 756 760 773 783 786 791 795 799 802 808 813 817 821 825 827 828 830 833 834 835 836 836 837 837 835 833 829 826 823 821 818 817 815 813 811 810 809 808 806 805
Wind_Speed
13 11 14 17 17 20 20 21 21 19 19 19 20 21 21 16 17 18 16 16 17 8 12 15 17 18 20 23 25 25 25 25 26 24 23 23 21 25 26 28 28 31 33 35
15 17 19 17 17 19 21 19 20 21 21 19 21 20 20 18 20 23 22 8 15 13 13 15 18 20 22 21 22 25 24 22 23 25 26 27 28 28 29 26 33 36 33 36
19 15 16 11 12 15 20 18 19 22 21 20 18 22 20 23 21 15 11 14 14 13 13 15 18 21 22 23 25 25 26 25 24 26 26 26 28 27 27 28 26 36 40 39
17 17 18 20 19 17 20 17 21 22 17 15 18 17 20 22 21 21 17 16 12 13 15 15 18 20 21 23 25 26 27 28 27 26 26 24 24 25 28 30 29 26 38 40
15 12 14 16 15 16 21 15 14 16 15 16 28 13 17 21 18 13 14 12 13 15 16 16 18 23 24 25 26 27 28 27 30 29 26 24 25 26 28 30 29 30 29 37
22 18 14 12 12 13 10 11 15 15 14 14 23 17 17 4 10 12 10 12 13 13 14 15 22 24 25 27 27 27 29 28 29 31 30 28 28 27 29 31 31 30 27 29
16 19 17 15 12 13 13 9 8 8 10 14 19 16 13 14 11 12 11 11 12 12 14 16 18 24 26 28 29 28 29 29 30 30 29 30 29 29 29 31 33 31 30 27
10 11 8 5 13 11 15 12 8 16 14 17 20 14 6 14 14 13 11 11 12 15 16 18 22 25 27 29 30 29 29 29 29 29 28 29 30 30 30 30 33 35 33 30
8 13 5 5 2 4 7 11 14 17 14 13 12 19 11 14 13 13 13 15 16 17 16 17 23 25 26 28 30 30 30 29 28 29 29 28 29 29 31 33 33 36 40 36
3 12 12 16 14 9 11 11 10 5 8 13 9 5 3 8 11 12 12 13 12 14 14 14 19 23 25 27 29 28 29 29 29 28 27 26 28 30 31 32 35 37 41 40
5 9 12 14 12 14 11 12 11 11 10 10 13 3 3 4 6 8 10 11 11 13 13 12 17 23 24 26 27 29 29 29 30 30 26 26 22 21 21 24 31 40 39 39
5 4 10 17 15 15 16 15 15 9 10 11 10 5 6 3 3 7 9 11 14 14 14 13 19 24 25 28 26 28 32 33 33 29 26 25 25 23 23 21 21 8 35 37
3 4 6 6 11 13 14 13 14 10 8 16 10 2 5 2 5 8 9 13 13 15 15 14 18 21 24 28 27 30 31 34 34 32 29 30 26 27 28 26 28 33 33 32
3 5 7 10 6 9 6 11 11 12 9 12 9 3 4 2 5 7 10 12 12 12 14 14 14 20 24 28 27 30 33 36 36 35 34 35 34 31 28 29 38 36 39 44
4 7 7 11 17 17 16 15 13 9 12 9 5 6 5 4 5 7 9 10 11 13 15 14 13 17 24 29 30 31 34 36 36 36 39 37 32 31 30 40 41 42 47 52
9 7 4 10 17 17 17 16 17 12 8 10 5 5 8 8 7 7 9 9 10 11 13 14 15 22 25 28 30 30 32 35 33 35 34 35 35 37 37 47 46 49 49 41
9 5 2 6 10 4 10 8 11 8 7 8 10 4 11 9 7 7 7 8 9 11 13 14 15 20 25 28 30 29 30 33 36 36 38 38 39 39 44 43 44 45 40 41
4 4 5 7 6 9 2 2 3 6 3 6 11 13 11 10 9 8 7 7 8 10 12 13 18 20 23 25 26 25 28 31 33 34 36 38 37 39 40 41 40 49 37 42
7 6 4 4 8 1 5 5 7 7 6 9 13 13 14 14 13 9 7 8 8 8 11 13 16 19 21 23 25 25 27 30 31 34 34 35 36 37 39 38 39 43 34 41
12 9 6 6 6 3 5 9 8 6 5 12 15 15 16 15 5 4 6 7 9 10 11 13 16 17 23 24 23 25 28 30 32 32 34 32 34 37 36 36 36 32 31 32
10 7 14 10 7 1 7 7 4 4 4 13 13 13 13 8 5 11 9 8 9 9 12 12 15 18 20 24 23 25 27 29 26 28 28 37 35 33 33 30 32 31 32 33
12 8 7 8 6 9 4 7 4 4 8 9 12 12 17 15 12 9 8 6 7 8 9 13 14 17 20 23 23 23 24 25 25 25 29 27 34 33 33 36 34 33 31 30
5 1 2 2 3 4 2 4 7 8 10 13 14 14 17 14 12 10 8 8 8 7 6 8 14 17 21 22 23 22 26 22 26 25 26 29 26 32 30 34 34 33 32 32
3 1 1 5 7 6 4 5 8 10 11 12 15 15 15 15 11 9 8 8 9 8 8 9 10 15 17 20 24 23 25 24 21 25 25 25 27 23 29 26 31 31 31 29
2 6 6 4 6 7 4 7 11 12 13 14 14 14 13 13 11 9 8 9 10 9 8 8 11 13 15 17 19 22 23 23 21 20 24 22 22 24 19 23 23 24 27 28
6 3 5 2 11 5 12 11 14 13 12 14 15 15 16 17 12 14 12 12 11 10 10 11 12 13 14 15 17 20 22 22 21 20 20 24 22 22 22 21 18 20 19 22
Wind_Direction
227 231 240 252 249 258 275 284 285 288 295 297 288 284 279 295 283 279 276 264 233 213 66 46 31 15 3 351 343 338 331 327 327 322 316 308 288 274 237 231 229 233 212 216
240 249 246 260 282 285 283 284 285 290 284 280 283 292 288 278 276 271 265 281 50 41 25 19 15 10 3 347 337 328 321 321 320 316 310 308 305 297 294 251 231 227 226 215
255 262 280 243 247 281 282 276 273 275 293 291 290 277 276 276 294 293 106 76 56 34 14 12 3 1 354 344 336 329 322 322 321 314 308 302 300 297 287 279 273 227 223 223
266 272 278 270 280 287 265 278 289 296 304 287 296 290 297 287 294 301 77 59 35 22 13 4 359 348 343 336 336 333 327 322 313 312 305 298 297 293 290 292 290 260 225 224
248 272 283 259 272 278 285 308 302 300 288 295 276 279 285 287 280 67 63 47 24 17 7 355 349 347 337 338 335 330 325 317 311 309 305 298 289 288 290 291 290 286 277 232
264 268 263 293 296 293 314 299 289 277 269 264 273 281 275 350 66 74 49 41 27 7 354 350 346 342 337 335 332 329 323 317 312 308 304 297 291 285 286 287 287 285 280 276
253 253 242 234 260 274 257 257 277 277 261 258 273 279 68 94 83 60 39 28 16 3 0 349 348 346 339 336 332 328 325 316 311 302 299 296 291 287 280 277 279 278 274 274
274 269 258 243 221 259 288 290 282 289 288 294 308 292 95 99 67 47 27 30 12 3 1 356 352 346 343 336 332 330 325 318 311 304 299 294 290 283 276 269 267 272 270 263
277 258 55 59 359 258 270 274 288 277 286 291 275 258 87 48 38 23 10 12 9 9 4 356 350 350 342 338 334 331 328 322 316 310 303 293 286 279 272 269 266 265 266 263
290 279 268 270 250 225 263 285 295 260 268 258 264 310 68 13 5 4 7 8 12 12 5 359 358 347 341 339 335 334 333 327 321 317 311 302 292 282 274 268 264 260 260 263
255 252 271 279 267 255 245 245 238 261 267 280 290 310 83 29 2 351 358 1 21 18 10 7 354 343 338 338 340 342 340 337 337 333 327 323 321 318 309 282 288 252 255 257
249 280 278 273 270 242 249 257 263 225 250 257 280 281 82 89 19 5 6 8 16 17 10 358 353 347 346 344 344 353 351 350 347 345 349 354 356 359 357 347 337 358 246 259
193 238 280 270 232 246 255 263 260 255 247 269 275 285 125 95 47 36 16 18 13 9 4 0 356 352 349 347 350 360 357 357 358 2 9 11 7 17 17 14 27 40 56 54
78 247 259 271 306 290 284 277 262 251 252 269 268 114 154 74 44 32 27 20 14 7 7 2 355 353 349 355 358 5 4 4 5 12 19 19 16 21 28 34 40 41 51 53
229 251 266 271 275 275 279 280 276 261 269 273 325 360 132 99 72 50 33 22 13 9 13 1 356 356 357 2 1 8 9 8 10 16 21 21 21 29 39 45 44 44 47 53
205 242 321 298 270 256 255 252 258 256 250 262 256 263 122 108 83 57 40 27 19 12 13 4 5 4 3 8 4 10 11 11 15 20 23 23 26 30 38 46 44 45 46 52
228 198 251 262 294 296 263 262 235 252 243 256 255 126 137 119 89 57 46 39 24 18 13 6 7 10 4 12 5 12 14 14 18 20 20 22 26 30 36 43 47 46 43 47
181 180 250 281 275 244 70 12 196 189 167 144 123 142 137 120 107 85 60 47 34 22 15 10 4 13 8 9 13 12 15 20 23 23 22 22 26 29 34 38 41 50 35 46
170 192 248 252 257 154 182 201 167 167 178 173 145 137 135 134 125 88 74 67 50 30 20 19 11 18 14 10 15 17 19 22 22 25 24 25 26 30 31 33 35 43 37 45
182 207 253 282 291 290 77 143 171 180 201 172 155 157 156 164 215 122 99 77 64 45 31 23 16 18 18 11 17 21 23 22 22 21 25 27 33 34 32 31 33 38 39 44
189 206 226 239 245 185 119 137 156 212 121 167 162 161 168 167 75 124 114 89 76 65 44 28 24 25 20 18 20 25 26 21 20 24 29 33 34 36 35 37 38 37 39 42
184 191 207 229 237 236 139 152 227 116 129 119 92 104 103 115 114 114 116 103 80 63 50 37 32 28 29 26 27 25 24 24 29 31 33 35 38 38 35 36 35 37 39 41
201 293 81 23 35 87 39 75 112 136 117 124 120 119 121 125 130 137 129 118 105 82 58 55 49 37 35 32 30 28 24 30 31 35 38 35 35 40 40 40 37 36 35 35
103 184 160 178 142 139 110 109 115 113 116 118 127 131 133 130 131 131 126 114 99 85 63 55 59 51 37 35 33 29 26 28 35 36 36 37 37 36 43 44 44 43 39 37
76 161 129 82 133 139 172 121 119 109 113 124 129 130 132 133 135 128 126 128 130 128 109 82 68 59 51 38 34 30 27 28 30 38 36 37 38 38 45 59 58 60 55 49
174 146 189 207 171 176 157 144 130 132 139 142 138 139 139 139 140 146 146 137 116 98 83 72 61 54 46 40 33 31 29 27 29 28 34 33 32 33 35 37 43 50 60 56